Tracking 25711 objects as of 22-May-2022
HD Live streaming from Space Station
objects crossing your sky now

AALTO 1

Track AALTO 1 now!
10-day predictions
AALTO 1 is classified as:


NORAD ID: 42775
Int'l Code: 2017-036L
Perigee: 487.4 km
Apogee: 506.8 km
Inclination: 97.2 °
Period: 94.4 minutes
Semi major axis: 6868 km
RCS: Unknown
Launch date: June 23, 2017
Source: (FIN)
Launch site: SRIHARIKOTA (SRI)

Uplink (MHz):
Downlink (MHz): 437.220/2402.000
Beacon (MHz): 437.220
Mode: 9600bps FSK CW
Call sign: OH2A1S
Status: Active

aabbcc
Your satellite tracking list
Your tracking list is empty




NASA's NSSDC Master Catalog

Two Line Element Set (TLE):
1 42775U 17036L   22141.86695873  .00013355  00000-0  53173-3 0  9993
2 42775  97.1998 180.6090 0014136  65.6357 294.6355 15.25270015272723
Source of the keplerian elements: AMSAT